This is the latest recevied weather packets stored in our database for station/object KI4MRC. If no packets are shown the sender has not sent any weather packets the latest 10 day(s).
| Time | Temp. | Humidity | Pressure | Rain* | Wind** | Luminosity | Snow |
|---|---|---|---|---|---|---|---|
| 1777463948 | 20.56° C | 99% | 1016.2 hPa | 0 mm | - | 40 W/m² | - |
| 1777463644 | 20.56° C | 99% | 1016.2 hPa | 0 mm | - | 35 W/m² | - |
| 1777463339 | 20.56° C | 99% | 1016.2 hPa | 0 mm | - | 34 W/m² | - |
| 1777463035 | 20° C | 99% | 1016.2 hPa | 0 mm | - | 32 W/m² | - |
| 1777462730 | 20° C | 99% | 1016.1 hPa | 0 mm | - | 30 W/m² | - |
| 1777462426 | 20° C | 99% | 1016 hPa | 0 mm | - | 28 W/m² | - |
| 1777462123 | 20° C | 99% | 1016 hPa | 0 mm | - | 28 W/m² | - |
| 1777461819 | 19.44° C | 99% | 1015.9 hPa | 0 mm | - | 27 W/m² | - |
| 1777461515 | 19.44° C | 99% | 1015.7 hPa | 0 mm | - | 24 W/m² | - |
| 1777461211 | 19.44° C | 99% | 1015.8 hPa | 0 mm | - | 23 W/m² | - |
| 1777460907 | 19.44° C | 99% | 1015.6 hPa | 0 mm | - | 17 W/m² | - |
| 1777460603 | 18.89° C | 99% | 1015.8 hPa | 0 mm | - | 12 W/m² | - |
| 1777460299 | 18.89° C | 98% | 1015.5 hPa | 0 mm | - | 9 W/m² | - |
| 1777459996 | 18.89° C | 98% | 1015.3 hPa | 0 mm | - | 6 W/m² | - |
| 1777459692 | 19.44° C | 99% | 1015.3 hPa | 0 mm | - | 4 W/m² | - |
| 1777459389 | 19.44° C | 99% | 1015.3 hPa | 0 mm | - | 2 W/m² | - |
| 1777459087 | 19.44° C | 98% | 1015.5 hPa | 0 mm | - | 1 W/m² | - |
| 1777458784 | 19.44° C | 98% | 1015.3 hPa | 0 mm | - | 0 W/m² | - |
| 1777458481 | 19.44° C | 98% | 1015.1 hPa | 0 mm | - | 0 W/m² | - |
| 1777458178 | 18.89° C | 98% | 1015.2 hPa | 0 mm | - | 0 W/m² | - |
| 1777457878 | 19.44° C | 98% | 1015.3 hPa | 0 mm | - | 0 W/m² | - |
| 1777457574 | 19.44° C | 98% | 1015.2 hPa | 0 mm | - | 0 W/m² | - |
| 1777457269 | 18.89° C | 98% | 1015 hPa | 0 mm | - | 0 W/m² | - |
| 1777456965 | 18.89° C | 98% | 1015.2 hPa | 0 mm | - | 0 W/m² | - |
| 1777456661 | 19.44° C | 98% | 1015.1 hPa | 0 mm | - | 0 W/m² | - |
* Rain latest hour (hover to see other rain measurements)
** Current wind speed in m/s (hover to see current wind gust speed)